[[{"header":{"parameterUnit":"m.s-1","parameterCategory":2,"la1":30.2991,"la2":30.254,"lo1":-89.0895,"lo2":-89.0444,"dy":0.0017,"dx":0.0017,"nx":28,"ny":28,"refTime":"2024-12-13T09:00:00:Z","depth":"0","parameterNumber":2,"parameterNumberName":"U-component_of_CURRENTS"},"data":[0,0,0,0,0,0,0,0,0,0,0,0,0,0,0,0,0,0,0,0,0,0,0,0,0,0,0,0,0,0,0,0,0,0,0,0,0,0,0,0,0,0,0,0,0,0,0,0,0,0,0,0,0,0,0,0,0,0,-0.1664,-0.1664,0,-0.1707,-0.1708,-0.1708,-0.1708,-0.1708,-0.1708,-0.1707,-0.168,-0.1679,-0.1679,0,0,0,0,0,0,0,0,0,0,0,0,0,-0.1558,-0.156,-0.1664,-0.1664,-0.1665,-0.1707,-0.1708,-0.1708,-0.1708,-0.1708,-0.1707,-0.1707,-0.168,-0.1679,-0.1679,0,0,0,0,0,0,0,0,0,0,0,0,0,-0.1601,-0.156,-0.1664,-0.1672,-0.1673,-0.1707,-0.1708,-0.1708,-0.1709,-0.1708,-0.1707,-0.1707,-0.168,-0.1679,-0.1679,-0.1688,0,0,-0.1677,-0.1677,0,0,0,0,0,0,0,0,-0.1599,-0.1605,-0.167,-0.1671,-0.1673,-0.1703,-0.1661,-0.1699,-0.1709,-0.1693,-0.1707,-0.1706,-0.1682,-0.1682,-0.169,-0.1687,-0.1685,-0.1677,-0.1677,-0.1677,-0.1676,0,0,0,0,0,0,0,-0.1596,-0.1603,-0.1679,-0.167,-0.1672,-0.1665,-0.1671,-0.1668,-0.1688,-0.1695,-0.1695,-0.1703,-0.1682,-0.1691,-0.1689,-0.1685,-0.1677,-0.1677,-0.1676,-0.1676,-0.1687,-0.1687,0,0,0,0,0,0,-0.1596,-0.1601,-0.1678,-0.1681,-0.1635,-0.1668,-0.1674,-0.1693,-0.169,-0.169,-0.1703,-0.1703,-0.1692,-0.169,-0.1688,-0.1714,-0.1677,-0.1676,-0.1676,-0.1686,-0.1687,-0.1688,0,0,0,0,0,0,-0.1594,-0.1603,-0.1676,-0.1642,-0.1651,-0.1671,-0.1691,-0.1694,-0.1702,-0.1697,-0.1696,-0.1709,-0.1691,-0.1689,-0.1686,-0.1712,-0.1676,-0.1675,-0.1685,-0.1686,-0.1687,-0.1756,0,0,0,0,0,0,-0.1591,-0.1602,-0.1612,-0.1643,-0.1653,-0.1701,-0.1692,-0.1695,-0.1709,-0.1708,-0.1702,-0.1699,-0.169,-0.1687,-0.1686,-0.1711,-0.1675,-0.1685,-0.1686,-0.1687,-0.1753,-0.1759,-0.1765,0,0,0,0,0,-0.1587,-0.1609,-0.1613,-0.1622,-0.1668,-0.1702,-0.1706,-0.1716,-0.171,-0.172,-0.1711,-0.1699,-0.1693,-0.1687,-0.1686,-0.1711,-0.1684,-0.1686,-0.1687,-0.1751,-0.1758,-0.1765,0,0,0,0,0,0,-0.1567,-0.1612,-0.1616,-0.165,-0.1674,-0.1702,-0.1714,-0.1719,-0.1723,-0.1717,-0.1706,-0.1703,-0.1713,-0.1697,-0.1691,-0.1716,-0.1687,-0.1688,-0.1737,-0.1743,-0.1749,-0.1758,-0.1674,0,0,0,0,0,-0.1568,-0.1594,-0.1631,-0.1654,-0.1671,-0.1691,-0.1704,-0.1712,-0.1722,-0.1724,-0.1721,-0.1714,-0.1719,-0.1718,-0.1715,-0.1727,-0.1727,-0.1741,-0.1746,-0.1751,-0.1757,-0.1772,-0.178,-0.1692,-0.1692,-0.1692,0,0,-0.1563,-0.1592,-0.1604,-0.1651,-0.167,-0.1701,-0.1697,-0.1722,-0.1744,-0.1719,-0.174,-0.1734,-0.1725,-0.1743,-0.1746,-0.1732,-0.1781,-0.1753,-0.1758,-0.176,-0.1775,-0.1783,-0.1791,-0.1693,-0.1693,-0.1693,0,0,-0.1575,-0.1597,-0.1627,-0.1651,-0.1687,-0.1705,-0.1713,-0.1745,-0.1756,-0.1775,-0.1766,-0.1772,-0.1775,-0.1781,-0.1782,-0.1815,-0.181,-0.1815,-0.1854,-0.187,-0.1877,-0.1884,-0.1917,-0.1925,-0.1818,-0.1818,-0.1818,0,-0.1566,-0.1613,-0.1638,-0.1674,-0.1694,-0.1708,-0.1741,-0.1761,-0.1784,-0.1804,-0.1786,-0.1812,-0.1797,-0.1832,-0.1842,-0.183,-0.1843,-0.1832,-0.1879,-0.1885,-0.1891,-0.1922,-0.1931,-0.1822,-0.1821,-0.1821,-0.1821,0,-0.1604,-0.1639,-0.1659,-0.171,-0.1733,-0.1761,-0.1795,-0.1818,-0.1828,-0.1853,-0.1888,-0.1875,-0.1892,-0.1891,-0.1875,-0.1916,-0.1914,-0.1886,-0.1866,-0.1905,-0.1935,-0.1943,-0.1827,-0.1825,-0.1824,-0.1823,0,0,-0.1588,-0.167,-0.1674,-0.1706,-0.1753,-0.1779,-0.1821,-0.1875,-0.1915,-0.1929,-0.1985,-0.1983,-0.1983,-0.1982,-0.1969,-0.1978,-0.2028,-0.1952,-0.1951,-0.1993,-0.2084,-0.2088,-0.2097,-0.2012,-0.2013,-0.2014,-0.2097,0,-0.1608,-0.1676,-0.1713,-0.1768,-0.1806,-0.1836,-0.188,-0.1925,-0.1961,-0.2018,-0.2026,-0.206,-0.2018,-0.2026,-0.2035,-0.2029,-0.205,-0.201,-0.2032,-0.2033,-0.2039,-0.2106,-0.2053,-0.2122,-0.2105,-0.2106,-0.2107,0,-0.1632,-0.1677,-0.1733,-0.1812,-0.1832,-0.1859,-0.1932,-0.1972,-0.2054,-0.2085,-0.2126,-0.2144,-0.2172,-0.2119,-0.2143,-0.2122,-0.211,-0.21,-0.2103,-0.2086,-0.2052,-0.2075,-0.2137,-0.2133,-0.212,-0.2119,-0.2118,0,-0.1604,-0.1691,-0.1733,-0.1755,-0.1842,-0.187,-0.1908,-0.1986,-0.2039,-0.2121,-0.2169,-0.2214,-0.2228,-0.2229,-0.221,-0.2183,-0.224,-0.2197,-0.2198,-0.2198,-0.2146,-0.214,-0.2211,-0.2219,-0.2218,-0.2218,-0.2218,0,-0.161,-0.1648,-0.1721,-0.1741,-0.18,-0.1855,-0.1924,-0.1974,-0.2065,-0.2134,-0.2188,-0.2241,-0.2251,-0.2289,-0.2264,-0.227,-0.2283,-0.2228,-0.2225,-0.2171,-0.2166,-0.2151,-0.2144,-0.2221,-0.2221,-0.222,-0.2219,0,-0.1577,-0.1627,-0.168,-0.176,-0.1787,-0.1817,-0.1919,-0.1973,-0.2053,-0.2145,-0.2172,-0.227,-0.2312,-0.2338,-0.235,-0.2332,-0.2315,-0.233,-0.2279,-0.2269,-0.2258,-0.2256,-0.2291,-0.2239,-0.2361,-0.2361,-0.2362,0,-0.1569,-0.1589,-0.1666,-0.1689,-0.1721,-0.1785,-0.1833,-0.194,-0.1999,-0.2151,-0.2188,-0.2283,-0.2345,-0.2403,-0.2393,-0.2405,-0.2341,-0.2352,-0.228,-0.2279,-0.2274,-0.2238,-0.2187,-0.2248,-0.2248,-0.2247,-0.2247,0,-0.1537,-0.1555,-0.1587,-0.1632,-0.1674,-0.1748,-0.182,-0.1881,-0.2008,-0.2101,-0.2213,-0.2286,-0.2371,-0.2389,-0.2418,-0.2387,-0.2313,-0.2345,-0.2349,-0.221,-0.2169,-0.2109,-0.2188,-0.2244,-0.2244,-0.2245,-0.2245,-0.2245,-0.1487,-0.1493,-0.1518,-0.156,-0.1616,-0.1678,-0.1701,-0.1815,-0.1916,-0.2047,-0.2169,-0.228,-0.2356,-0.2399,-0.2386,-0.2346,-0.2307,-0.2272,-0.2279,-0.2251,-0.2172,-0.2263,-0.2306,-0.2307,-0.2307,-0.2308,-0.2308,0,-0.1408,-0.1419,-0.1448,-0.1487,-0.1511,-0.1573,-0.1663,-0.1686,-0.1774,-0.1958,-0.2072,-0.2275,-0.2308,-0.2359,-0.2372,-0.231,-0.2215,-0.2239,-0.2165,-0.2119,-0.221,-0.2175,-0.2185,-0.2185,-0.2185,-0.2185,-0.2185,-0.2185,-0.1359,-0.1342,-0.1361,-0.1362,-0.1392,-0.1396,-0.1422,-0.1487,-0.1593,-0.1782,-0.1968,-0.2161,-0.2232,-0.2452,-0.2401,-0.23,-0.2212,-0.2148,-0.2138,-0.2202,-0.2205,-0.2207,-0.2174,-0.2183,-0.2183,-0.1977,-0.1975,-0.1975]},{"header":{"parameterUnit":"m.s-1","parameterCategory":2,"la1":30.2991,"la2":30.254,"lo1":-89.0895,"lo2":-89.0444,"dy":0.0017,"dx":0.0017,"nx":28,"ny":28,"refTime":"2024-12-13T09:00:00:Z","depth":"0","parameterNumber":3,"parameterNumberName":"V-component_of_CURRENTS"},"data":[0,0,0,0,0,0,0,0,0,0,0,0,0,0,0,0,0,0,0,0,0,0,0,0,0,0,0,0,0,0,0,0,0,0,0,0,0,0,0,0,0,0,0,0,0,0,0,0,0,0,0,0,0,0,0,0,0,0,-0.0138,-0.0138,0,-0.0051,-0.005,-0.0049,0.0003,0.0003,0.0003,0.0004,0.01,0.0102,0.0105,0,0,0,0,0,0,0,0,0,0,0,0,0,-0.0197,-0.0197,-0.0139,-0.0137,-0.0136,-0.0052,-0.005,-0.0049,0.0003,0.0003,0.0003,0.0004,0.0099,0.0102,0.0105,0,0,0,0,0,0,0,0,0,0,0,0,0,-0.0146,-0.0196,-0.0139,-0.0101,-0.0097,-0.0052,-0.005,-0.0049,0.0003,0.0003,0.0003,0.0004,0.0098,0.0102,0.0105,0.0123,0,0,0.0116,0.0118,0,0,0,0,0,0,0,0,-0.0149,-0.0144,-0.0107,-0.0103,-0.0099,-0.0036,-0.0036,0.0009,0.0003,-0.0034,0.0004,0.0004,0.0055,0.0062,0.0079,0.0127,0.0132,0.0117,0.0119,0.0121,0.0122,0,0,0,0,0,0,0,-0.0153,-0.0147,-0.0103,-0.0106,-0.0101,-0.0067,-0.006,-0.0027,0.0009,-0.0031,-0.0027,-0.0019,0.0057,0.0075,0.0082,0.0133,0.0117,0.012,0.0122,0.0124,0.0218,0.0219,0,0,0,0,0,0,-0.0169,-0.0151,-0.0106,-0.0101,-0.0125,-0.0067,-0.0059,-0.0055,0.0008,0.0018,-0.0019,-0.0017,0.0069,0.0077,0.0085,0.0119,0.0121,0.0124,0.0126,0.0218,0.0219,0.0219,0,0,0,0,0,0,-0.0171,-0.0166,-0.0109,-0.0124,-0.0115,-0.0066,-0.0063,-0.0054,-0.0036,0.0017,0.0027,-0.0011,0.007,0.008,0.0118,0.0123,0.0126,0.0129,0.0218,0.0218,0.0219,0.018,0,0,0,0,0,0,-0.0173,-0.0167,-0.0171,-0.0126,-0.0114,-0.0087,-0.0063,-0.0052,-0.0032,-0.0028,0.0028,0.0037,0.0071,0.0112,0.0121,0.0128,0.0132,0.0217,0.0218,0.0219,0.0181,0.0179,0.0178,0,0,0,0,0,-0.0176,-0.0183,-0.0172,-0.0166,-0.0121,-0.0087,-0.0078,-0.0042,-0.0032,-0.0024,0.0015,0.0035,0.0123,0.0115,0.0126,0.0133,0.0217,0.0218,0.0219,0.0182,0.0179,0.0178,0,0,0,0,0,0,-0.0212,-0.0177,-0.0164,-0.0161,-0.0128,-0.0078,-0.0069,-0.0046,-0.001,-0.0007,0.0041,0.0053,0.0089,0.0116,0.0106,0.0163,0.0173,0.0176,0.0141,0.014,0.0138,0.0127,0.0135,0,0,0,0,0,-0.0223,-0.022,-0.0178,-0.0177,-0.0162,-0.0117,-0.01,-0.0076,-0.0037,-0.0021,0.0018,0.006,0.0101,0.0122,0.016,0.019,0.022,0.0202,0.02,0.0198,0.0198,0.0246,0.0249,0.0221,0.0221,0.0221,0,0,-0.0239,-0.0219,-0.0218,-0.0185,-0.0156,-0.0137,-0.0106,-0.0083,-0.0066,-0.0017,0.0015,0.0055,0.0108,0.0144,0.0162,0.0167,0.0222,0.0199,0.0198,0.0198,0.0248,0.025,0.0253,0.0222,0.0222,0.0222,0,0,-0.0267,-0.0249,-0.0253,-0.0228,-0.019,-0.0158,-0.0155,-0.0106,-0.0082,-0.0047,-0.0005,0.0037,0.0092,0.0137,0.0165,0.0177,0.0212,0.0186,0.0171,0.0218,0.0221,0.0223,0.0261,0.0268,0.0185,0.0185,0.0185,0,-0.0288,-0.0284,-0.0249,-0.0241,-0.0224,-0.0171,-0.0166,-0.013,-0.0077,-0.0055,-0.0045,0.005,0.0091,0.0148,0.0153,0.0174,0.0201,0.0172,0.0215,0.0219,0.0222,0.0261,0.0268,0.0184,0.0184,0.0184,0.0184,0,-0.0312,-0.0306,-0.0305,-0.0277,-0.0255,-0.0241,-0.0189,-0.0163,-0.013,-0.009,-0.0034,0.0027,0.0083,0.0104,0.0134,0.018,0.0193,0.0206,0.0217,0.0222,0.0263,0.0271,0.0181,0.0182,0.0182,0.0183,0,0,-0.0367,-0.033,-0.0331,-0.0325,-0.0273,-0.0261,-0.0226,-0.0177,-0.0158,-0.0099,-0.0065,0.0012,0.0047,0.0082,0.0128,0.017,0.0218,0.0193,0.0196,0.0224,0.0317,0.0355,0.0369,0.0238,0.0239,0.024,0.0334,0,-0.0395,-0.0397,-0.0366,-0.0363,-0.0356,-0.03,-0.0277,-0.0227,-0.0174,-0.0127,-0.0049,-0.0001,0.0039,0.0063,0.0116,0.0193,0.0239,0.0191,0.0313,0.0317,0.0345,0.0379,0.0415,0.0505,0.0343,0.0344,0.0345,0,-0.0429,-0.0423,-0.0429,-0.0406,-0.0399,-0.0388,-0.0341,-0.0312,-0.0225,-0.0187,-0.0114,-0.005,0.0034,0.0059,0.0197,0.0163,0.0236,0.0294,0.0299,0.0355,0.0372,0.0475,0.0527,0.0712,0.0359,0.0358,0.0357,0,-0.0488,-0.0471,-0.048,-0.047,-0.0431,-0.0425,-0.0401,-0.0331,-0.0313,-0.022,-0.0198,-0.008,-0.0031,0.0082,0.0213,0.0205,0.0361,0.0365,0.0471,0.0473,0.0539,0.0546,0.078,0.0461,0.0461,0.0461,0.0461,0,-0.0533,-0.054,-0.051,-0.0515,-0.0529,-0.0482,-0.0481,-0.0437,-0.0378,-0.0362,-0.0237,-0.0196,-0.0025,0.009,0.0209,0.0373,0.0363,0.0479,0.0508,0.0526,0.0531,0.0723,0.078,0.0464,0.0464,0.0463,0.0462,0,-0.0597,-0.0574,-0.0585,-0.056,-0.0557,-0.0569,-0.055,-0.055,-0.0482,-0.0454,-0.0431,-0.0281,-0.0125,0.0053,0.0244,0.036,0.0613,0.0572,0.058,0.0609,0.0872,0.0923,0.1126,0.1185,0.0704,0.0706,0.0707,0,-0.0628,-0.0639,-0.0634,-0.0652,-0.0644,-0.065,-0.0662,-0.061,-0.0605,-0.0509,-0.0503,-0.034,-0.022,0.0093,0.034,0.0578,0.0685,0.0743,0.0739,0.0911,0.0989,0.1004,0.1039,0.0809,0.0811,0.0813,0.0814,0,-0.0687,-0.0684,-0.0692,-0.0732,-0.0754,-0.0779,-0.0784,-0.0796,-0.0735,-0.0703,-0.0623,-0.0514,-0.0176,0.0138,0.0474,0.0615,0.0864,0.0784,0.0974,0.1107,0.1128,0.119,0.0714,0.083,0.0828,0.0827,0.0826,0.0826,-0.0731,-0.0754,-0.0773,-0.0814,-0.0851,-0.0901,-0.0932,-0.0931,-0.0934,-0.0869,-0.0726,-0.0535,-0.0016,0.0474,0.0648,0.1071,0.0995,0.1194,0.1244,0.1245,0.1306,0.0859,0.0998,0.0997,0.0997,0.0996,0.0996,0,-0.0783,-0.081,-0.0857,-0.0909,-0.098,-0.0972,-0.1014,-0.1045,-0.1067,-0.0929,-0.082,-0.0256,0.0241,0.0713,0.1323,0.1542,0.1546,0.1645,0.1698,0.1711,0.1348,0.1359,0.157,0.157,0.157,0.157,0.1569,0.1569,-0.0809,-0.0869,-0.0894,-0.1018,-0.106,-0.1149,-0.1179,-0.1209,-0.1134,-0.0916,-0.0603,-0.0327,0.0425,0.1427,0.1986,0.2015,0.2166,0.2139,0.2208,0.2003,0.1965,0.1929,0.1959,0.2292,0.2293,0.2548,0.2551,0.2553]}],[{"header":{"parameterUnit":"m.s-1","parameterCategory":2,"la1":30.2991,"la2":30.254,"lo1":-89.0895,"lo2":-89.0444,"dy":0.0017,"dx":0.0017,"nx":28,"ny":28,"refTime":"2024-12-13T09:00:00:Z","depth":"2","parameterNumber":2,"parameterNumberName":"U-component_of_CURRENTS"},"data":[0,0,0,0,0,0,0,0,0,0,0,0,0,0,0,0,0,0,0,0,0,0,0,0,0,0,0,0,0,0,0,0,0,0,0,0,0,0,0,0,0,0,0,0,0,0,0,0,0,0,0,0,0,0,0,0,0,0,-0.1543,-0.1544,0,-0.1591,-0.1592,-0.1592,-0.1597,-0.1597,-0.1596,-0.1596,-0.157,-0.157,-0.1569,0,0,0,0,0,0,0,0,0,0,0,0,0,-0.1442,-0.1444,-0.1543,-0.1544,-0.1545,-0.1591,-0.1592,-0.1592,-0.1597,-0.1597,-0.1596,-0.1596,-0.157,-0.157,-0.1569,0,0,0,0,0,0,0,0,0,0,0,0,0,-0.1486,-0.1444,-0.1543,-0.1554,-0.1556,-0.1591,-0.1592,-0.1592,-0.1597,-0.1597,-0.1596,-0.1596,-0.157,-0.157,-0.1569,-0.1576,0,0,-0.1567,-0.1567,0,0,0,0,0,0,0,0,-0.1483,-0.1489,-0.1552,-0.1553,-0.1555,-0.1589,-0.1547,-0.1584,-0.1597,-0.158,-0.1596,-0.1595,-0.1571,-0.157,-0.1579,-0.1575,-0.1574,-0.1567,-0.1567,-0.1567,-0.1567,0,0,0,0,0,0,0,-0.148,-0.1487,-0.1561,-0.1553,-0.1555,-0.1552,-0.1557,-0.1554,-0.1575,-0.1581,-0.1582,-0.159,-0.1571,-0.158,-0.1578,-0.1573,-0.1567,-0.1567,-0.1567,-0.1566,-0.1575,-0.1576,0,0,0,0,0,0,-0.148,-0.1485,-0.1559,-0.1562,-0.1519,-0.1554,-0.156,-0.1577,-0.1577,-0.1577,-0.1591,-0.159,-0.1581,-0.1579,-0.1577,-0.1607,-0.1567,-0.1566,-0.1566,-0.1575,-0.1575,-0.1576,0,0,0,0,0,0,-0.1477,-0.1486,-0.1557,-0.1525,-0.1534,-0.1557,-0.1576,-0.1579,-0.159,-0.1585,-0.1583,-0.1599,-0.1581,-0.1578,-0.1576,-0.1605,-0.1566,-0.1566,-0.1574,-0.1575,-0.1576,-0.1652,0,0,0,0,0,0,-0.1474,-0.1485,-0.1496,-0.1525,-0.1536,-0.1583,-0.1576,-0.158,-0.1597,-0.1597,-0.1592,-0.1589,-0.158,-0.1577,-0.1576,-0.1604,-0.1565,-0.1573,-0.1574,-0.1575,-0.1649,-0.1655,-0.1661,0,0,0,0,0,-0.1471,-0.1492,-0.1496,-0.1505,-0.1551,-0.1584,-0.1589,-0.1602,-0.1598,-0.1608,-0.1601,-0.1589,-0.1583,-0.1577,-0.1576,-0.1604,-0.1573,-0.1574,-0.1575,-0.1646,-0.1654,-0.1661,0,0,0,0,0,0,-0.1453,-0.1496,-0.1501,-0.1534,-0.1557,-0.1585,-0.16,-0.1606,-0.1611,-0.1608,-0.1596,-0.1593,-0.1603,-0.1587,-0.1581,-0.1607,-0.1576,-0.1577,-0.1631,-0.1638,-0.1644,-0.1653,-0.1565,0,0,0,0,0,-0.1455,-0.148,-0.1516,-0.1539,-0.1556,-0.1577,-0.1591,-0.16,-0.1611,-0.1614,-0.1611,-0.1605,-0.1608,-0.1609,-0.1604,-0.1618,-0.1614,-0.1633,-0.1639,-0.1645,-0.1649,-0.1661,-0.1669,-0.158,-0.158,-0.158,0,0,-0.1451,-0.1479,-0.1492,-0.1536,-0.1557,-0.1587,-0.1584,-0.1612,-0.1633,-0.1609,-0.163,-0.1625,-0.1615,-0.1633,-0.1637,-0.1623,-0.1672,-0.1646,-0.1651,-0.1653,-0.1663,-0.1672,-0.168,-0.1581,-0.1581,-0.1581,0,0,-0.1466,-0.1487,-0.1517,-0.1541,-0.1578,-0.1594,-0.1603,-0.1635,-0.1648,-0.1667,-0.1658,-0.1666,-0.1668,-0.1674,-0.1675,-0.1709,-0.1702,-0.1709,-0.1753,-0.1765,-0.1773,-0.178,-0.1809,-0.1818,-0.1715,-0.1715,-0.1715,0,-0.1459,-0.1505,-0.1528,-0.1564,-0.1585,-0.1599,-0.1632,-0.1652,-0.1675,-0.1697,-0.1679,-0.1706,-0.169,-0.1727,-0.1738,-0.1726,-0.1736,-0.173,-0.1775,-0.1781,-0.1787,-0.1815,-0.1824,-0.1719,-0.1719,-0.1718,-0.1718,0,-0.1498,-0.1532,-0.1553,-0.1602,-0.1626,-0.1655,-0.1687,-0.171,-0.1721,-0.1747,-0.1784,-0.1771,-0.1789,-0.179,-0.1774,-0.1815,-0.1812,-0.1782,-0.1761,-0.1801,-0.1828,-0.1836,-0.1724,-0.1723,-0.1722,-0.1721,0,0,-0.1486,-0.1566,-0.157,-0.1601,-0.1648,-0.1673,-0.1714,-0.1766,-0.1806,-0.1824,-0.188,-0.1881,-0.1885,-0.1884,-0.1872,-0.188,-0.1929,-0.1853,-0.1852,-0.1892,-0.1977,-0.1982,-0.199,-0.1912,-0.1913,-0.1914,-0.1989,0,-0.1507,-0.1574,-0.1609,-0.1663,-0.1701,-0.173,-0.1771,-0.1816,-0.1852,-0.1909,-0.1922,-0.1956,-0.192,-0.193,-0.194,-0.1928,-0.1949,-0.1913,-0.1924,-0.1925,-0.1931,-0.1999,-0.1794,-0.1844,-0.1996,-0.1997,-0.1998,0,-0.1531,-0.1576,-0.1631,-0.1708,-0.1727,-0.1754,-0.1824,-0.1863,-0.1944,-0.1976,-0.2022,-0.204,-0.2071,-0.2021,-0.2042,-0.2024,-0.201,-0.1996,-0.1998,-0.1978,-0.1943,-0.1823,-0.1852,-0.2011,-0.201,-0.2009,-0.2008,0,-0.1506,-0.1591,-0.1632,-0.1654,-0.1739,-0.1766,-0.1803,-0.188,-0.1929,-0.2012,-0.2059,-0.2109,-0.2123,-0.2123,-0.2104,-0.2078,-0.2127,-0.2084,-0.2083,-0.2083,-0.1898,-0.1881,-0.2101,-0.2101,-0.2101,-0.2101,-0.2101,0,-0.1514,-0.1551,-0.1622,-0.1643,-0.1699,-0.1753,-0.182,-0.1868,-0.1957,-0.2025,-0.208,-0.2131,-0.2144,-0.2179,-0.2154,-0.2158,-0.2168,-0.2113,-0.2108,-0.1922,-0.1907,-0.2028,-0.2018,-0.2104,-0.2103,-0.2103,-0.2102,0,-0.1483,-0.1532,-0.1583,-0.1661,-0.1687,-0.1716,-0.1813,-0.1865,-0.1944,-0.2032,-0.2059,-0.2155,-0.2196,-0.2222,-0.223,-0.2214,-0.2215,-0.2207,-0.2006,-0.1977,-0.2156,-0.2149,-0.2232,-0.2233,-0.2233,-0.2234,-0.2235,0,-0.1475,-0.1496,-0.157,-0.159,-0.1622,-0.1684,-0.1729,-0.1833,-0.189,-0.2036,-0.2071,-0.2163,-0.222,-0.2273,-0.2236,-0.2239,-0.2246,-0.2066,-0.1976,-0.2186,-0.2172,-0.2164,-0.2157,-0.1763,-0.176,-0.1757,-0.1755,0,-0.1445,-0.1462,-0.1494,-0.1536,-0.1576,-0.1645,-0.1714,-0.177,-0.1894,-0.198,-0.2088,-0.2155,-0.2211,-0.2137,-0.2151,-0.2105,-0.2056,-0.2014,-0.2271,-0.1776,-0.1753,-0.1737,-0.1743,-0.173,-0.1733,-0.1734,-0.1736,-0.1737,-0.1396,-0.14,-0.1426,-0.1466,-0.1519,-0.1577,-0.1597,-0.1696,-0.1789,-0.1877,-0.2007,-0.2028,-0.2035,-0.1965,-0.1908,-0.1845,-0.1973,-0.1859,-0.1862,-0.187,-0.1817,-0.1798,-0.1774,-0.1777,-0.1779,-0.1781,-0.1783,0,-0.1312,-0.1329,-0.1358,-0.1394,-0.1412,-0.1478,-0.1561,-0.1555,-0.1621,-0.1725,-0.1801,-0.1667,-0.1661,-0.1661,-0.1541,-0.1562,-0.1484,-0.1486,-0.1355,-0.1381,-0.1404,-0.1322,-0.1151,-0.1149,-0.1148,-0.1146,0,0,-0.1261,-0.1244,-0.1263,-0.1263,-0.1297,-0.1287,-0.1309,-0.1321,-0.1356,-0.1365,-0.1378,-0.1544,-0.1605,-0.1365,-0.1327,-0.1219,-0.1273,-0.1156,-0.1657,-0.1526,-0.1546,-0.1615,-0.1519,0,0,0,0,0]},{"header":{"parameterUnit":"m.s-1","parameterCategory":2,"la1":30.2991,"la2":30.254,"lo1":-89.0895,"lo2":-89.0444,"dy":0.0017,"dx":0.0017,"nx":28,"ny":28,"refTime":"2024-12-13T09:00:00:Z","depth":"2","parameterNumber":3,"parameterNumberName":"V-component_of_CURRENTS"},"data":[0,0,0,0,0,0,0,0,0,0,0,0,0,0,0,0,0,0,0,0,0,0,0,0,0,0,0,0,0,0,0,0,0,0,0,0,0,0,0,0,0,0,0,0,0,0,0,0,0,0,0,0,0,0,0,0,0,0,-0.0133,-0.0132,0,-0.0048,-0.0047,-0.0046,0.0005,0.0005,0.0005,0.0006,0.01,0.0102,0.0105,0,0,0,0,0,0,0,0,0,0,0,0,0,-0.0192,-0.0192,-0.0133,-0.0132,-0.0131,-0.0048,-0.0047,-0.0045,0.0005,0.0005,0.0005,0.0006,0.0099,0.0102,0.0105,0,0,0,0,0,0,0,0,0,0,0,0,0,-0.0142,-0.0192,-0.0133,-0.0097,-0.0093,-0.0048,-0.0047,-0.0045,0.0005,0.0005,0.0005,0.0006,0.0098,0.0102,0.0105,0.0123,0,0,0.0116,0.0118,0,0,0,0,0,0,0,0,-0.0145,-0.014,-0.0103,-0.0099,-0.0094,-0.0032,-0.0033,0.0011,0.0005,-0.0031,0.0006,0.0006,0.0056,0.0063,0.008,0.0127,0.0131,0.0117,0.0119,0.012,0.0121,0,0,0,0,0,0,0,-0.0149,-0.0143,-0.0098,-0.0102,-0.0097,-0.0064,-0.0057,-0.0024,0.0011,-0.0028,-0.0024,-0.0016,0.0058,0.0076,0.0082,0.0133,0.0116,0.012,0.0122,0.0123,0.0218,0.0218,0,0,0,0,0,0,-0.0164,-0.0147,-0.0101,-0.0096,-0.0121,-0.0063,-0.0055,-0.0052,0.0011,0.002,-0.0016,-0.0014,0.007,0.0078,0.0086,0.0119,0.012,0.0124,0.0126,0.0218,0.0218,0.0218,0,0,0,0,0,0,-0.0166,-0.0161,-0.0105,-0.012,-0.011,-0.0063,-0.0059,-0.005,-0.0033,0.0019,0.0029,-0.0008,0.007,0.0081,0.0118,0.0123,0.0125,0.0128,0.0217,0.0218,0.0218,0.0181,0,0,0,0,0,0,-0.0168,-0.0163,-0.0166,-0.0121,-0.011,-0.0082,-0.0059,-0.0049,-0.0029,-0.0025,0.0029,0.0038,0.0071,0.0113,0.0122,0.0128,0.0131,0.0217,0.0217,0.0218,0.0181,0.018,0.0178,0,0,0,0,0,-0.0171,-0.0178,-0.0167,-0.0161,-0.0116,-0.0082,-0.0074,-0.0038,-0.0029,-0.0022,0.0017,0.0037,0.0124,0.0116,0.0126,0.0134,0.0216,0.0217,0.0218,0.0182,0.018,0.0179,0,0,0,0,0,0,-0.0207,-0.0173,-0.0159,-0.0156,-0.0124,-0.0074,-0.0066,-0.0043,-0.0007,-0.0004,0.0043,0.0055,0.009,0.0116,0.0107,0.0164,0.0173,0.0176,0.0142,0.014,0.0139,0.0128,0.0134,0,0,0,0,0,-0.0218,-0.0215,-0.0172,-0.0172,-0.0157,-0.0113,-0.0096,-0.0072,-0.0034,-0.0018,0.002,0.0062,0.0102,0.0123,0.0161,0.019,0.022,0.0202,0.0201,0.0199,0.0199,0.0248,0.025,0.0221,0.0221,0.0221,0,0,-0.0233,-0.0214,-0.0213,-0.0179,-0.0151,-0.0132,-0.0102,-0.008,-0.0062,-0.0014,0.0018,0.0057,0.0109,0.0146,0.0163,0.0168,0.0223,0.02,0.0199,0.0199,0.0249,0.0252,0.0254,0.0222,0.0222,0.0222,0,0,-0.0262,-0.0244,-0.0248,-0.0222,-0.0185,-0.0153,-0.015,-0.0102,-0.0078,-0.0043,-0.0001,0.004,0.0095,0.0139,0.0167,0.018,0.0213,0.0189,0.0174,0.0222,0.0224,0.0227,0.0263,0.0269,0.0188,0.0188,0.0188,0,-0.0283,-0.0278,-0.0243,-0.0235,-0.0218,-0.0166,-0.016,-0.0124,-0.0072,-0.005,-0.004,0.0054,0.0094,0.0151,0.0157,0.0177,0.0203,0.0174,0.0219,0.0222,0.0226,0.0262,0.027,0.0186,0.0186,0.0187,0.0187,0,-0.0307,-0.03,-0.0299,-0.027,-0.0248,-0.0234,-0.0182,-0.0155,-0.0123,-0.0084,-0.0028,0.0032,0.0088,0.0109,0.0138,0.0185,0.0196,0.021,0.022,0.0226,0.0264,0.0273,0.0184,0.0184,0.0185,0.0185,0,0,-0.0361,-0.0324,-0.0324,-0.0318,-0.0266,-0.0253,-0.0217,-0.0168,-0.0148,-0.009,-0.0056,0.002,0.0054,0.0088,0.0134,0.0176,0.0223,0.0197,0.0201,0.0226,0.032,0.0354,0.0366,0.0243,0.0245,0.0246,0.0335,0,-0.0389,-0.039,-0.0358,-0.0354,-0.0346,-0.029,-0.0266,-0.0216,-0.0164,-0.0117,-0.004,0.0007,0.0047,0.007,0.0122,0.0199,0.0244,0.0197,0.0316,0.032,0.0344,0.0377,0.0318,0.0396,0.0343,0.0345,0.0346,0,-0.0422,-0.0415,-0.0419,-0.0395,-0.0388,-0.0376,-0.0328,-0.0299,-0.0212,-0.0175,-0.0103,-0.004,0.0043,0.0067,0.0203,0.017,0.0241,0.0298,0.0303,0.0354,0.037,0.0383,0.0413,0.036,0.0359,0.0358,0.0357,0,-0.0481,-0.0462,-0.0469,-0.0459,-0.0418,-0.0412,-0.0388,-0.0318,-0.0299,-0.0207,-0.0186,-0.0069,-0.0022,0.009,0.0218,0.021,0.0363,0.0369,0.0467,0.047,0.0454,0.0454,0.0463,0.0463,0.0463,0.0463,0.0462,0,-0.0525,-0.0531,-0.0499,-0.0504,-0.0515,-0.0469,-0.0466,-0.0422,-0.0364,-0.0348,-0.0225,-0.0184,-0.0016,0.0097,0.0213,0.0372,0.0365,0.0476,0.0503,0.044,0.0437,0.0432,0.0427,0.0466,0.0465,0.0465,0.0464,0,-0.0589,-0.0565,-0.0574,-0.0547,-0.0543,-0.0554,-0.0534,-0.0533,-0.0467,-0.0439,-0.0417,-0.0269,-0.0117,0.0058,0.0245,0.0358,0.0509,0.0563,0.0477,0.0493,0.0582,0.0574,0.0684,0.0686,0.0688,0.069,0.0691,0,-0.062,-0.0631,-0.0622,-0.0638,-0.0629,-0.0634,-0.0645,-0.0593,-0.0588,-0.0493,-0.0488,-0.033,-0.0212,0.0092,0.0317,0.0544,0.0548,0.0626,0.0611,0.0593,0.0608,0.0598,0.0588,0.0569,0.057,0.057,0.057,0,-0.0679,-0.0675,-0.0681,-0.0718,-0.0738,-0.0761,-0.0765,-0.0776,-0.0716,-0.0684,-0.0606,-0.0501,-0.0188,0.0066,0.0384,0.0507,0.059,0.0637,0.0651,0.0526,0.0493,0.0505,0.0498,0.0571,0.0571,0.0571,0.0571,0.0571,-0.0722,-0.0743,-0.076,-0.0799,-0.0834,-0.0882,-0.0911,-0.0906,-0.0908,-0.0841,-0.0709,-0.0535,-0.0242,0.0193,0.0418,0.0628,0.0634,0.068,0.0676,0.0672,0.0647,0.062,0.0715,0.0716,0.0717,0.0717,0.0718,0,-0.0771,-0.0799,-0.0843,-0.0892,-0.0958,-0.0953,-0.0992,-0.1008,-0.1024,-0.0908,-0.0803,-0.0502,-0.0174,0.0127,0.0461,0.0676,0.0646,0.0698,0.0616,0.0613,0.0612,0.0579,0.0632,0.0633,0.0633,0.0634,0,0,-0.0796,-0.0853,-0.0877,-0.0994,-0.1037,-0.1116,-0.1145,-0.1149,-0.1083,-0.0994,-0.0843,-0.0572,-0.0189,0.0036,0.0302,0.0471,0.0477,0.0476,0.0519,0.0385,0.0381,0.0576,0.0522,0,0,0,0,0]}],[{"header":{"parameterUnit":"m.s-1","parameterCategory":2,"la1":30.2991,"la2":30.254,"lo1":-89.0895,"lo2":-89.0444,"dy":0.0017,"dx":0.0017,"nx":28,"ny":28,"refTime":"2024-12-13T09:00:00:Z","depth":"4","parameterNumber":2,"parameterNumberName":"U-component_of_CURRENTS"},"data":[0,0,0,0,0,0,0,0,0,0,0,0,0,0,0,0,0,0,0,0,0,0,0,0,0,0,0,0,0,0,0,0,0,0,0,0,0,0,0,0,0,0,0,0,0,0,0,0,0,0,0,0,0,0,0,0,0,0,-0.0853,-0.0852,0,-0.0856,-0.0857,-0.0857,-0.0896,-0.0896,-0.0897,-0.0898,-0.0898,-0.0898,-0.0897,0,0,0,0,0,0,0,0,0,0,0,0,0,-0.0802,-0.0804,-0.0853,-0.0852,-0.0852,-0.0856,-0.0857,-0.0857,-0.0896,-0.0896,-0.0897,-0.0898,-0.0899,-0.0898,-0.0897,0,0,0,0,0,0,0,0,0,0,0,0,0,-0.0821,-0.0805,-0.0853,-0.0869,-0.087,-0.0856,-0.0857,-0.0857,-0.0896,-0.0897,-0.0897,-0.0898,-0.0899,-0.0898,-0.0897,-0.0874,0,0,-0.0895,-0.0894,0,0,0,0,0,0,0,0,-0.082,-0.0823,-0.0867,-0.0868,-0.0869,-0.0873,-0.0839,-0.0861,-0.0895,-0.089,-0.0898,-0.0899,-0.0886,-0.0887,-0.0891,-0.0874,-0.0874,-0.0895,-0.0894,-0.0894,-0.0894,0,0,0,0,0,0,0,-0.0819,-0.0823,-0.0858,-0.0866,-0.0868,-0.0849,-0.0854,-0.0843,-0.0886,-0.0891,-0.0892,-0.0886,-0.0888,-0.0892,-0.0891,-0.0874,-0.0895,-0.0894,-0.0893,-0.0893,-0.0868,-0.0868,0,0,0,0,0,0,-0.0814,-0.0822,-0.0858,-0.0858,-0.0842,-0.085,-0.0855,-0.0874,-0.0886,-0.0888,-0.0886,-0.0888,-0.0893,-0.0892,-0.0891,-0.0863,-0.0894,-0.0893,-0.0892,-0.0869,-0.0868,-0.0868,0,0,0,0,0,0,-0.0813,-0.0818,-0.0858,-0.0835,-0.0839,-0.085,-0.087,-0.0874,-0.0891,-0.0882,-0.0884,-0.0901,-0.0893,-0.0892,-0.0899,-0.0863,-0.0893,-0.0892,-0.0869,-0.0869,-0.0868,-0.0806,0,0,0,0,0,0,-0.0812,-0.0818,-0.0837,-0.0836,-0.084,-0.0852,-0.0869,-0.0873,-0.0883,-0.0887,-0.0895,-0.0895,-0.0894,-0.09,-0.0898,-0.0863,-0.0891,-0.0869,-0.0869,-0.0868,-0.0809,-0.0804,-0.08,0,0,0,0,0,-0.0811,-0.0819,-0.0838,-0.0842,-0.0864,-0.0851,-0.0852,-0.0864,-0.0883,-0.0886,-0.0901,-0.0896,-0.0897,-0.09,-0.0897,-0.086,-0.0869,-0.0869,-0.0868,-0.081,-0.0805,-0.08,0,0,0,0,0,0,-0.0806,-0.0824,-0.0845,-0.0861,-0.0861,-0.0857,-0.086,-0.0869,-0.0884,-0.0897,-0.0898,-0.0899,-0.0894,-0.0894,-0.0897,-0.0857,-0.088,-0.0879,-0.0836,-0.0831,-0.0827,-0.0859,-0.089,0,0,0,0,0,-0.0814,-0.0834,-0.0838,-0.0854,-0.0855,-0.0863,-0.0864,-0.0873,-0.0878,-0.0888,-0.0897,-0.0901,-0.0887,-0.0875,-0.0881,-0.0851,-0.0918,-0.0828,-0.0823,-0.0819,-0.0846,-0.0955,-0.0964,-0.0867,-0.0867,-0.0867,0,0,-0.0816,-0.0829,-0.0841,-0.0855,-0.0862,-0.0866,-0.0868,-0.0871,-0.0878,-0.0883,-0.0906,-0.0898,-0.0885,-0.0862,-0.0856,-0.0853,-0.0872,-0.0819,-0.0815,-0.0845,-0.0955,-0.0965,-0.0974,-0.0867,-0.0867,-0.0867,0,0,-0.0808,-0.0844,-0.0849,-0.0859,-0.0867,-0.0871,-0.0874,-0.0882,-0.089,-0.0904,-0.09,-0.0884,-0.0882,-0.0849,-0.0833,-0.0811,-0.0862,-0.0796,-0.0775,-0.0879,-0.0888,-0.0898,-0.0955,-0.097,-0.0773,-0.0773,-0.0773,0,-0.0807,-0.0833,-0.0844,-0.0854,-0.0868,-0.0877,-0.0885,-0.0886,-0.0899,-0.0908,-0.0917,-0.0912,-0.088,-0.0835,-0.0807,-0.0799,-0.0867,-0.0786,-0.0875,-0.0887,-0.0898,-0.0955,-0.0972,-0.077,-0.077,-0.0771,-0.0771,0,-0.0804,-0.0834,-0.0836,-0.0867,-0.0875,-0.0887,-0.0891,-0.0908,-0.0928,-0.0933,-0.093,-0.0897,-0.09,-0.0847,-0.0809,-0.0825,-0.085,-0.0873,-0.089,-0.0904,-0.0962,-0.0981,-0.0766,-0.0767,-0.0768,-0.0769,0,0,-0.078,-0.0826,-0.0833,-0.086,-0.0893,-0.0898,-0.0916,-0.0929,-0.0971,-0.0953,-0.1,-0.0903,-0.0904,-0.0886,-0.0824,-0.0853,-0.0932,-0.0879,-0.0886,-0.0938,-0.1152,-0.1053,-0.1065,-0.0989,-0.0992,-0.0996,-0.1147,0,-0.0778,-0.0803,-0.083,-0.087,-0.0885,-0.0922,-0.0953,-0.097,-0.1,-0.1052,-0.0991,-0.102,-0.0909,-0.0915,-0.092,-0.0947,-0.099,-0.0888,-0.1131,-0.1137,-0.1052,-0.1087,-0.1008,-0.1162,-0.1167,-0.117,-0.1172,0,-0.0768,-0.0791,-0.0828,-0.0898,-0.0912,-0.0945,-0.1025,-0.105,-0.1103,-0.1137,-0.1137,-0.114,-0.1106,-0.1073,-0.1121,-0.1072,-0.1118,-0.1136,-0.1145,-0.11,-0.1077,-0.1157,-0.1209,-0.1206,-0.1203,-0.1201,-0.1199,0,-0.0742,-0.0793,-0.0831,-0.0856,-0.093,-0.0968,-0.1008,-0.1075,-0.1126,-0.1206,-0.128,-0.1262,-0.1292,-0.1332,-0.1303,-0.126,-0.1419,-0.1383,-0.1338,-0.1331,-0.1402,-0.1391,-0.1507,-0.1507,-0.1507,-0.1506,-0.1506,0,-0.0731,-0.0762,-0.0831,-0.0858,-0.0931,-0.0975,-0.1075,-0.1122,-0.1224,-0.1295,-0.1319,-0.1371,-0.138,-0.1435,-0.1406,-0.1411,-0.1514,-0.1359,-0.1379,-0.1363,-0.1346,-0.1414,-0.1401,-0.1512,-0.1511,-0.151,-0.1509,0,-0.0699,-0.0745,-0.0799,-0.0887,-0.0924,-0.0977,-0.1111,-0.1182,-0.1282,-0.139,-0.1427,-0.1504,-0.1555,-0.1554,-0.1637,-0.155,-0.1571,-0.157,-0.1544,-0.1557,-0.1387,-0.1369,-0.1535,-0.1534,-0.1532,-0.1531,-0.153,0,-0.0683,-0.0707,-0.082,-0.0872,-0.092,-0.1013,-0.1088,-0.1196,-0.1266,-0.1436,-0.1475,-0.1592,-0.1614,-0.1637,-0.1641,-0.1634,-0.1603,-0.1618,-0.148,-0.1395,-0.1399,-0.1383,-0.1367,-0.1527,-0.1527,-0.1526,-0.1526,0,-0.0655,-0.0711,-0.0769,-0.0865,-0.0949,-0.1037,-0.1133,-0.1188,-0.1313,-0.1429,-0.1499,-0.1528,-0.1601,-0.1588,-0.1618,-0.1593,-0.1594,-0.16,-0.1601,-0.1473,-0.1386,-0.1388,-0.1375,-0.152,-0.1521,-0.1522,-0.1522,0,-0.0649,-0.0689,-0.0772,-0.0855,-0.0952,-0.101,-0.1076,-0.1155,-0.1238,-0.14,-0.1422,-0.1514,-0.1598,-0.1574,-0.1583,-0.1563,-0.1513,-0.1443,-0.1451,-0.1458,-0.1351,-0.1225,-0.1351,0,0,0,0,0,-0.0624,-0.0667,-0.0748,-0.0827,-0.0915,-0.0954,-0.1086,-0.115,-0.1275,-0.1296,-0.1353,-0.1402,-0.1425,-0.1468,-0.1425,-0.1529,-0.1511,-0.1472,-0.1432,-0.149,-0.1497,-0.137,0,0,0,0,0,0,-0.0612,-0.0684,-0.0727,-0.0775,-0.0809,-0.0885,-0.0956,-0.1043,-0.1058,-0.119,-0.1207,-0.1305,-0.134,-0.1417,-0.1386,-0.1399,-0.1346,-0.1529,-0.1526,-0.1487,-0.1492,-0.1497,-0.137,0,0,0,0,0]},{"header":{"parameterUnit":"m.s-1","parameterCategory":2,"la1":30.2991,"la2":30.254,"lo1":-89.0895,"lo2":-89.0444,"dy":0.0017,"dx":0.0017,"nx":28,"ny":28,"refTime":"2024-12-13T09:00:00:Z","depth":"4","parameterNumber":3,"parameterNumberName":"V-component_of_CURRENTS"},"data":[0,0,0,0,0,0,0,0,0,0,0,0,0,0,0,0,0,0,0,0,0,0,0,0,0,0,0,0,0,0,0,0,0,0,0,0,0,0,0,0,0,0,0,0,0,0,0,0,0,0,0,0,0,0,0,0,0,0,-0.0062,-0.0061,0,0.0004,0.0005,0.0006,0.0036,0.0036,0.0036,0.0036,0.0099,0.01,0.0102,0,0,0,0,0,0,0,0,0,0,0,0,0,-0.0111,-0.011,-0.0062,-0.0061,-0.0061,0.0004,0.0005,0.0006,0.0036,0.0036,0.0036,0.0036,0.0098,0.01,0.0102,0,0,0,0,0,0,0,0,0,0,0,0,0,-0.0072,-0.011,-0.0062,-0.0037,-0.0034,0.0004,0.0005,0.0006,0.0036,0.0036,0.0036,0.0036,0.0098,0.01,0.0103,0.0119,0,0,0.011,0.0111,0,0,0,0,0,0,0,0,-0.0074,-0.007,-0.0042,-0.0039,-0.0036,0.0012,0.0011,0.0044,0.0036,0.0009,0.0036,0.0036,0.007,0.0074,0.0087,0.0122,0.0125,0.0111,0.0112,0.0113,0.0114,0,0,0,0,0,0,0,-0.0077,-0.0072,-0.0036,-0.0041,-0.0037,-0.0011,-0.0007,0.0018,0.0039,0.0012,0.0014,0.0022,0.0071,0.0084,0.0088,0.0126,0.011,0.0113,0.0114,0.0115,0.0207,0.0208,0,0,0,0,0,0,-0.0087,-0.0075,-0.0038,-0.0034,-0.0055,-0.0011,-0.0005,-0.0003,0.0039,0.0045,0.0022,0.0023,0.008,0.0085,0.0091,0.0132,0.0113,0.0115,0.0117,0.0206,0.0207,0.0208,0,0,0,0,0,0,-0.0089,-0.0085,-0.0041,-0.0053,-0.0045,-0.001,-0.0008,-0.0002,0.0011,0.0046,0.0053,0.0028,0.008,0.0087,0.012,0.0134,0.0117,0.0119,0.0205,0.0207,0.0208,0.0202,0,0,0,0,0,0,-0.009,-0.0086,-0.0089,-0.0054,-0.0045,-0.0023,-0.0008,-0.0001,0.0016,0.0018,0.0054,0.006,0.0081,0.0116,0.0123,0.0137,0.0121,0.0204,0.0206,0.0207,0.0201,0.0203,0.0205,0,0,0,0,0,-0.0092,-0.0097,-0.0089,-0.0085,-0.005,-0.0023,-0.0016,0.0009,0.0016,0.0021,0.0052,0.0059,0.0132,0.0119,0.0126,0.0142,0.0203,0.0205,0.0207,0.0201,0.0203,0.0205,0,0,0,0,0,0,-0.012,-0.0093,-0.0084,-0.008,-0.0056,-0.0017,-0.001,0.0007,0.0036,0.0038,0.007,0.0078,0.0109,0.0129,0.0114,0.0175,0.0169,0.0173,0.0162,0.0164,0.0166,0.016,0.0123,0,0,0,0,0,-0.0128,-0.0126,-0.0092,-0.0091,-0.0078,-0.0045,-0.0031,-0.0014,0.0016,0.0029,0.0056,0.009,0.0125,0.0145,0.0171,0.0206,0.0215,0.0222,0.0224,0.0225,0.0226,0.0242,0.0244,0.0215,0.0215,0.0215,0,0,-0.0139,-0.0124,-0.0123,-0.0097,-0.0075,-0.0056,-0.0037,-0.0018,0.0003,0.0031,0.0064,0.0091,0.0133,0.0171,0.0188,0.019,0.0241,0.0228,0.0228,0.0229,0.0244,0.0247,0.0249,0.0216,0.0216,0.0216,0,0,-0.0155,-0.0146,-0.0144,-0.0125,-0.0095,-0.0069,-0.0066,-0.0027,-0.0005,0.0028,0.0058,0.0097,0.0141,0.0184,0.021,0.0239,0.0243,0.0245,0.0258,0.0273,0.0275,0.0277,0.03,0.0304,0.0254,0.0254,0.0254,0,-0.017,-0.0163,-0.0139,-0.0128,-0.0113,-0.0077,-0.0066,-0.0034,0.001,0.0031,0.0034,0.0115,0.0151,0.0212,0.023,0.0243,0.0249,0.0244,0.0274,0.0276,0.0278,0.0301,0.0305,0.0254,0.0254,0.0254,0.0254,0,-0.0179,-0.0172,-0.0168,-0.0143,-0.0123,-0.011,-0.0065,-0.0041,-0.0014,0.002,0.0071,0.0124,0.0172,0.0196,0.0227,0.0271,0.027,0.0265,0.0262,0.028,0.0304,0.0308,0.0254,0.0254,0.0254,0.0254,0,0,-0.0215,-0.0182,-0.0182,-0.0173,-0.0131,-0.0118,-0.008,-0.0034,-0.002,0.0037,0.0061,0.015,0.0173,0.0205,0.0248,0.0279,0.0312,0.0282,0.0282,0.0295,0.0346,0.0333,0.0337,0.0302,0.0303,0.0303,0.036,0,-0.0228,-0.0217,-0.0195,-0.0182,-0.0167,-0.0128,-0.0106,-0.0061,-0.0021,0.0009,0.0086,0.0119,0.0179,0.0192,0.0241,0.0282,0.0323,0.0298,0.0336,0.0338,0.0315,0.0341,0.0305,0.0363,0.0364,0.0365,0.0365,0,-0.0245,-0.0231,-0.0226,-0.0202,-0.0195,-0.0187,-0.0152,-0.0127,-0.0065,-0.004,0.0024,0.007,0.0154,0.0175,0.0283,0.0258,0.031,0.0344,0.0347,0.0338,0.0333,0.0342,0.0374,0.0373,0.0373,0.0372,0.0372,0,-0.0281,-0.0255,-0.0255,-0.0246,-0.0214,-0.0209,-0.0192,-0.0144,-0.0136,-0.0075,-0.0073,0.0033,0.0066,0.015,0.0263,0.026,0.0355,0.0354,0.0399,0.0399,0.0395,0.0392,0.0422,0.0422,0.0422,0.0422,0.0421,0,-0.0305,-0.0304,-0.0277,-0.028,-0.0292,-0.0252,-0.0266,-0.0235,-0.0209,-0.0209,-0.0106,-0.0082,0.0055,0.0139,0.0239,0.0341,0.0344,0.0408,0.0413,0.0394,0.039,0.0398,0.0395,0.0424,0.0423,0.0423,0.0422,0,-0.0347,-0.033,-0.0332,-0.0311,-0.0313,-0.0324,-0.033,-0.0342,-0.0305,-0.0305,-0.0292,-0.0175,-0.0063,0.0081,0.0214,0.0296,0.0396,0.0433,0.0413,0.0414,0.0437,0.0432,0.0477,0.0477,0.0477,0.0477,0.0477,0,-0.0365,-0.0371,-0.0373,-0.0396,-0.0393,-0.0407,-0.0431,-0.0401,-0.0409,-0.0356,-0.036,-0.0249,-0.0156,0.003,0.0186,0.0371,0.0399,0.0452,0.0449,0.0442,0.0442,0.0438,0.0434,0.0477,0.0477,0.0477,0.0477,0,-0.0401,-0.0411,-0.0419,-0.0465,-0.0497,-0.0525,-0.0542,-0.0555,-0.0521,-0.0492,-0.0424,-0.0298,-0.017,0.001,0.0159,0.0295,0.0415,0.0453,0.0453,0.0451,0.0442,0.0442,0.0438,0.0477,0.0477,0.0477,0.0477,0,-0.0438,-0.0461,-0.0489,-0.0528,-0.0579,-0.0621,-0.0618,-0.0612,-0.0607,-0.0533,-0.0509,-0.0345,-0.0239,-0.0028,0.0112,0.0243,0.0273,0.0308,0.0317,0.0319,0.0263,0.0229,0.0205,0,0,0,0,0,-0.0462,-0.05,-0.055,-0.0592,-0.0648,-0.0672,-0.0689,-0.0674,-0.0635,-0.0607,-0.0557,-0.0431,-0.0208,-0.0092,0.0032,0.0109,0.0294,0.0259,0.0338,0.0477,0.0477,0.0437,0,0,0,0,0,0,-0.0484,-0.0536,-0.0558,-0.0642,-0.0685,-0.0741,-0.0752,-0.0722,-0.0686,-0.0627,-0.0505,-0.042,-0.0198,-0.0295,0.0023,0.0069,0.0133,0.0375,0.0377,0.0477,0.0477,0.0477,0.0436,0,0,0,0,0]}]]